sat.trackr.live / text

‹ back to catalog

UFO 4 (USA 108)

NORAD 23467 · 1995-003A

PAYLOAD ACTIVE UNKNOWN

§ Identity

Operator
Country
US
Launch date
1995-01-29
Launch site
AFETR
Launch vehicle
Mass (kg)
RCS (m²)
30.35

Purposes: comms

External: N2YO · Heavens-Above · Gunter

§ Orbital elements

Epoch: 2026-09-19T15:14:56.274720Z

Period
1,436.12 min
Inclination
9.7028°
Eccentricity
0.0003008
Mean motion
1.00269973 rev/d
Perigee alt
35,774.4 km
Apogee alt
35,799.8 km
Semi-major
42,165.2 km
B*
0.0000e+0
RAAN
12.7651°
Arg perigee
165.3124°
Mean anomaly
221.5410°
Rev number
11,590

§ Raw data

UFO 4 (USA 108)1 23467U 95003A   26262.63537355 -.00000021  00000+0  00000+0 0  99962 23467   9.7028  12.7651 0003008 165.3124 221.5410  1.00269973115903

JSON: /api/v1/satellites/23467 · /tle

For live sub-satellite position, see the globe view (requires WebGL).

§ Visibility from observer

Set your observer location to see the next 7 days of passes ≥ 10°. The values pass through the URL so the page stays shareable.

No JS? Fill the form by hand. The geolocation button needs JavaScript.